Location: Godiavel Galaoual
(15.2485°N, 12.6604°W)
Time: 12:47:54
(UTC+00:00)

LightSail 2 - Pass Details

Date: 06 June 2020
Orbit: 692 x 720 km, 24.0° (Epoch: 14 July)

Event Time Altitude Azimuth Distance (km) Brightness Sun altitude
Exits shadow 04:06:35 48° 356° (N) 920 5.8 -28.6°
Maximum altitude 04:07:03 50° 14° (NNE) 902 5.8 -28.5°
Drops below altitude 10° 04:12:04 10° 90° (E) 2,188 8.3 -27.6°
Sets 04:14:35 0° 95° (E) 3,110 9.1 -27.1°
